DW5160 Weather Reports


Display with metric or nautical units.
time (UTC)temp
F
wind
direction
speed
MPH
gust
MPH
rain 1hr
in
rain 24hr
in
rain mn
in
humidity
%
barometer
mb
20260509223026 69 209 2.0 16.0 0.00 0.31 0.22 54 1005.2
20260509221524 69 242 1.0 15.0 0.00 0.31 0.22 54 1005.3
20260509220025 69 197 1.0 13.0 0.00 0.31 0.22 53 1005.4
20260509214522 69 199 5.0 18.0 0.00 0.34 0.22 53 1005.4
20260509213021 69 224 0.0 17.0 0.00 0.34 0.22 55 1005.4
20260509211520 69 267 5.0 13.0 0.00 0.34 0.22 53 1005.5
20260509210018 69 219 1.0 14.0 0.00 0.34 0.22 54 1005.7
20260509204515 70 246 2.0 13.0 0.00 0.35 0.22 55 1005.9
20260509203022 69 227 2.0 12.0 0.00 0.35 0.22 56 1006.2
20260509201515 69 201 3.0 7.0 0.00 0.35 0.22 55 1006.3
20260509200008 67 235 3.0 12.0 0.00 0.35 0.22 60 1006.6
20260509194507 67 273 4.0 11.0 0.00 0.35 0.22 59 1007.0
20260509193014 66 267 3.0 17.0 0.00 0.35 0.22 61 1007.1
20260509191503 66 213 3.0 13.0 0.00 0.35 0.22 62 1007.0
20260509190002 66 271 3.0 12.0 0.00 0.35 0.22 62 1007.4
20260509184610 66 206 5.0 14.0 0.00 0.36 0.22 65 1007.3
20260509183059 64 236 5.0 14.0 0.00 0.36 0.22 70 1007.2
20260509181600 63 246 1.0 17.0 0.00 0.36 0.22 71 1007.5
20260509180100 63 207 1.0 10.0 0.00 0.36 0.22 72 1007.6
20260509174548 62 248 2.0 9.0 0.00 0.36 0.22 75 1007.8
20260509173056 60 239 0.0 7.0 0.00 0.36 0.22 76 1007.8
20260509171542 59 261 0.0 7.0 0.00 0.36 0.22 80 1007.9
20260509170038 58 194 2.0 7.0 0.00 0.36 0.22 81 1007.9
20260509164534 58 209 0.0 0.0 0.00 0.36 0.22 84 1007.9
20260509163035 56 209 0.0 5.0 0.00 0.36 0.22 85 1007.9
20260509161539 57 217 0.0 6.0 0.00 0.36 0.22 84 1007.8
20260509160035 57 227 0.0 7.0 0.00 0.36 0.22 86 1007.8
20260509154529 56 254 2.0 6.0 0.00 0.36 0.22 86 1007.7
20260509153046 56 194 2.0 7.0 0.00 0.36 0.22 87 1007.7
20260509151523 54 209 0.0 4.0 0.04 0.36 0.22 90 1007.8
20260509150021 53 204 0.0 7.0 0.04 0.36 0.22 90 1007.9
20260509144519 53 209 0.0 4.0 0.04 0.36 0.22 90 1007.8
20260509143016 52 206 0.0 5.0 0.04 0.36 0.22 90 1007.8
20260509141514 52 201 0.0 0.0 0.00 0.32 0.18 90 1007.9
20260509140011 52 203 0.0 3.0 0.00 0.32 0.18 90 1007.9
20260509134510 52 202 0.0 4.0 0.00 0.32 0.18 90 1007.9
20260509133009 52 202 0.0 0.0 0.00 0.32 0.18 91 1008.1
20260509131507 51 202 0.0 6.0 0.00 0.32 0.18 91 1008.2
20260509130007 51 216 0.0 3.0 0.00 0.32 0.18 91 1008.0
20260509124505 51 218 0.0 0.0 0.00 0.32 0.18 91 1008.0
20260509123003 50 218 0.0 0.0 0.01 0.32 0.18 91 1008.1
20260509121501 50 218 0.0 0.0 0.01 0.32 0.18 91 1008.3
20260509120101 50 218 0.0 0.0 0.01 0.32 0.18 91 1008.3
20260509120001 50 218 0.0 0.0 0.01 0.32 0.18 91 1008.3
20260509114559 49 218 0.0 0.0 0.01 0.32 0.18 91 1008.2
20260509113058 49 218 0.0 0.0 0.01 0.31 0.17 90 1008.1
20260509111559 49 218 0.0 0.0 0.01 0.31 0.17 90 1008.2
20260509110055 49 218 0.0 0.0 0.03 0.31 0.17 90 1008.2
20260509104559 49 218 0.0 0.0 0.04 0.31 0.17 90 1008.2
20260509103104 49 218 0.0 0.0 0.04 0.30 0.16 90 1008.1
20260509101559 49 218 0.0 0.0 0.05 0.30 0.16 90 1008.2
20260509100054 49 218 0.0 0.0 0.04 0.28 0.14 90 1008.3
20260509094557 49 218 0.0 0.0 0.05 0.27 0.13 90 1008.2
20260509093048 49 218 0.0 0.0 0.05 0.26 0.12 89 1008.6
20260509091553 49 218 0.0 0.0 0.04 0.24 0.10 89 1008.7
20260509090054 49 218 0.0 0.0 0.06 0.24 0.10 89 1008.7
20260509084549 49 218 0.0 0.0 0.05 0.22 0.08 89 1009.0
20260509083047 49 218 0.0 0.0 0.05 0.21 0.07 89 1009.1
20260509081542 49 218 0.0 0.0 0.05 0.20 0.06 89 1009.4
20260509080048 49 218 0.0 0.0 0.03 0.18 0.04 89 1009.4
20260509074555 49 218 0.0 0.0 0.01 0.16 0.02 89 1009.4
20260509073058 48 218 0.0 0.0 0.01 0.16 0.02 89 1009.2
20260509071545 48 218 0.0 0.0 0.00 0.15 0.01 89 1009.1
20260509070041 48 218 0.0 0.0 0.00 0.15 0.01 89 1009.2
20260509064539 48 218 0.0 0.0 0.00 0.15 0.01 89 1009.1
20260509063052 49 218 0.0 0.0 0.00 0.15 0.01 88 1009.2
20260509061537 49 218 0.0 0.0 0.00 0.15 0.01 88 1009.4
20260509060039 49 218 0.0 0.0 0.00 0.15 0.01 88 1009.7
20260509054535 49 218 0.0 0.0 0.00 0.15 0.01 88 1009.9
20260509053048 49 218 0.0 0.0 0.01 0.15 0.01 88 1010.0
20260509051528 49 218 0.0 0.0 0.01 0.15 0.01 88 1010.4
20260509050027 49 218 0.0 0.0 0.01 0.15 0.01 88 1010.4
20260509044525 49 218 0.0 0.0 0.01 0.15 0.01 88 1010.4
20260509043038 49 218 0.0 0.0 0.01 0.14 0.00 87 1010.5
20260509041521 49 218 0.0 0.0 0.02 0.14 0.00 87 1011.0
20260509040019 49 218 0.0 0.0 0.02 0.14 0.00 87 1011.2
20260509034518 50 218 0.0 0.0 0.04 0.14 0.14 87 1011.3
20260509033018 50 218 0.0 0.0 0.03 0.13 0.13 87 1011.4
20260509031517 50 218 0.0 0.0 0.03 0.12 0.12 87 1011.6
20260509030018 50 218 0.0 0.0 0.03 0.12 0.12 87 1011.8
20260509024516 50 218 0.0 0.0 0.02 0.10 0.10 86 1011.9
20260509023016 50 218 0.0 0.0 0.03 0.10 0.10 86 1012.1
20260509021516 50 218 0.0 0.0 0.03 0.09 0.09 86 1012.3
20260509020015 50 218 0.0 0.0 0.03 0.09 0.09 86 1012.3
20260509014523 50 218 0.0 0.0 0.02 0.08 0.08 86 1012.3
20260509013015 51 218 0.0 0.0 0.02 0.07 0.07 85 1011.5
20260509011514 51 218 0.0 0.0 0.01 0.06 0.06 85 1011.2
20260509010019 51 218 0.0 0.0 0.01 0.06 0.06 85 1010.9
20260509004520 51 218 0.0 0.0 0.01 0.06 0.06 85 1010.5
20260509003015 51 218 0.0 0.0 0.00 0.05 0.05 84 1010.8
20260509001512 51 218 0.0 0.0 0.00 0.05 0.05 84 1010.6
20260509000011 51 217 0.0 0.0 0.00 0.05 0.05 84 1010.5
20260508234510 51 217 0.0 0.0 0.00 0.05 0.05 83 1010.5
20260508233010 52 217 0.0 0.0 0.00 0.05 0.05 83 1010.3
20260508231510 52 217 0.0 0.0 0.00 0.05 0.05 83 1010.2
20260508230008 52 245 0.0 0.0 0.00 0.05 0.05 84 1010.3
20260508224517 52 245 0.0 0.0 0.00 0.05 0.05 83 1010.7